Location: Veytaux
(46.4185°N, 6.9320°E)
Time: 09:03:22
(UTC+00:00)

ARIANE 5 R/B - Pass Details

Date: 27 May 2022
Orbit: 747 x 795 km, 98.7° (Epoch: 01 July)

Event Time Altitude Azimuth Distance (km) Brightness Sun altitude
Rises 02:45:18 0° 20° (NNE) 3,243 7.1 -9.1°
Reaches altitude 10° 02:47:45 10° 27° (NNE) 2,305 6.3 -8.8°
Maximum altitude 02:52:33 42° 98° (E) 1,078 3.7 -8.2°
Drops below altitude 10° 02:57:15 10° 169° (S) 2,266 4.6 -7.6°
Sets 02:59:38 0° 177° (S) 3,182 5.3 -7.3°
